GEFSSE_con_probscp_012.txt.gz
Probability
0 0 0 0 0 0 0 0 0 0 0 0 0 0 0 0 0 0 0 0 0 0 0 0 0 0 0 0 0 0 0 0 0 0 0 0 0 0 0 0 0 0 0
0 0 0 0 0 0 0 0 0 0 0 0 0 0 0 0 0 0 0 0 0 0 0 0 0 0 0 0 0 0 0 0 0 0 0 0 0 0 0 0 0 0 0
0 0 0 0 0 0 0 0 0 0 0 0 0 0 0 0 0 0 0 0 0 0 0 0 0 0 0 0 0 0 0 0 0 0 0 0 0 0 0 0 0 0 0
0 0 0 0 0 0 0 0 0 0 0 0 0 0 0 0 0 0 0 0 0 0 0 0 0 0 0 0 0 0 0 0 0 0 0 0 0 0 0 0 0 0 0
0 0 0 0 0 0 0 0 0 0 0 0 0 0 0 0 0 0 0 0 0 0 0 0 0 0 0 0 0 0 0 0 0 0 0 0 0 0 0 0 0 0 0
0 0 0 0 0 0 0 0 0 0 0 0 0 0 0 0 0 0 0 0 0 0 0 0 0 0 0 0 0 0 0 0 0 0 0 0 0 0 0 0 0 0 0
0 0 0 0 0 0 0 0 0 0 0 0 0 0 0 0 0 0 0 0 0 0 0 0 0 0 0 0 0 0 0 0 0 0 0 0 0 0 0 0 0 0 0
0 0 0 0 0 0 0 0 0 0 0 0 0 0 0 0 0 0 0 0 0 0 0 0 0 0 0 0 0 0 0 0 0 0 0 0 0 0 0 0 0 0 0
0 0 0 0 0 0 0 0 0 0 0 0 0 0 0 0 0 0 0 0 0 0 0 0 0 0 0 0 0 0 0 0 0 0 0 0 0 0 0 0 0 0 0
0 0 0 0 0 0 0 0 0 0 0 0 0 0 0 0 0 0 0 0 0 0 0 0 0 0 0 0 0 0 0 0 0 0 0 0 0 0 0 0 0 0 0
0 0 0 0 0 0 0 0 0 0 0 0 0 0 0 0 0 0 0 0 0 0 0 0 0 0 0 0 0 0 0 0 0 0 0 0 0 0 0 0 0 0 0
0 0 0 0 0 0 0 0 0 0 0 0 0 0 0 0 0 0 0 0 0 0 0 0 0 0 0 0 0 0 0 0 0 0 0 0 0 0 0 0 0 0 0
0 0 0 0 0 0 0 0 0 0 0 0 0 0 0 0 0 0 0 0 0 0 0 0 0 0 0 0 0 0 0 0 0 0 0 0 0 0 0 0 0 0 0
3 2 1 0 0 0 0 0 0 0 0 0 0 0 0 0 0 0 0 0 0 0 0 0 0 0 0 0 0 0 0 0 0 0 0 0 0 0 0 0 0 0 0
10 7 4 2 2 2 3 4 2 2 2 2 2 3 2 1 0 0 0 0 0 0 0 0 0 0 0 0 0 0 0 0 0 0 0 0 0 0 0 0 0 0 0
19 17 14 12 10 9 9 9 6 5 6 8 14 22 24 20 15 8 3 2 1 0 0 0 0 0 0 0 0 0 0 0 0 0 0 0 1 0 0 0 0 0 0
42 40 38 33 27 25 26 26 23 18 18 24 40 57 63 59 52 36 18 9 7 5 3 2 1 0 0 0 1 2 2 2 2 1 1 1 1 0 1 2 1 0 1
71 73 70 61 54 53 57 58 54 47 45 52 66 81 89 90 86 74 51 33 27 22 14 8 4 2 2 3 7 11 11 10 7 4 2 1 1 0 4 10 10 5 1
87 90 90 86 80 79 82 82 80 78 78 79 82 89 95 98 99 95 83 67 56 48 37 27 22 20 18 14 16 23 24 20 14 7 3 2 1 1 5 17 22 11 2
74 80 88 93 93 92 92 91 90 92 95 94 91 93 98 100 100 99 95 87 78 73 65 56 52 45 36 28 23 24 26 21 14 10 6 4 2 1 4 17 27 19 10
52 62 76 86 93 96 96 96 94 95 97 98 97 98 98 98 97 97 96 92 88 86 81 74 67 51 35 29 21 14 12 10 9 9 8 5 2 1 2 16 33 38 33
50 58 69 80 89 94 96 97 96 95 97 98 99 98 95 92 91 91 91 88 86 86 81 70 57 37 20 15 11 4 1 2 3 6 7 5 2 1 3 15 37 49 48
58 63 70 79 86 89 92 94 95 94 95 97 97 93 88 84 81 79 78 75 72 70 64 50 33 19 9 5 6 7 6 4 2 2 4 4 3 3 4 12 25 34 35
53 60 71 80 84 88 91 92 93 93 93 95 92 84 76 68 62 57 53 52 49 46 41 27 13 7 4 3 7 11 12 8 3 2 2 3 4 3 3 6 9 14 16
34 45 62 75 83 87 91 92 93 93 92 90 83 70 55 43 33 27 24 23 24 24 22 14 6 3 2 2 5 7 9 7 3 1 1 2 2 1 1 1 2 4 6
19 30 49 68 80 84 88 91 92 93 91 85 75 57 38 24 15 9 7 7 8 11 12 8 3 1 1 1 2 2 3 3 2 0 0 1 1 0 0 0 1 1 2

GEFSSE_con_probscp_018.txt.gz
Probability
0 0 0 0 0 0 0 0 0 0 0 0 0 0 0 0 0 0 0 0 0 0 0 0 0 0 0 0 0 0 0 0 0 0 0 0 0 0 0 0 0 0 0
0 0 0 0 0 0 0 0 0 0 0 0 0 0 0 0 0 0 0 0 0 0 0 0 0 0 0 0 0 0 0 0 0 0 0 0 0 0 0 0 0 0 0
0 0 0 0 0 0 0 0 0 0 0 0 0 0 0 0 0 0 0 0 0 0 0 0 0 0 0 0 0 0 0 0 0 0 0 0 0 0 0 0 0 0 0
0 0 0 0 0 0 0 0 0 0 0 0 0 0 0 0 0 0 0 0 0 0 0 0 0 0 0 0 0 0 0 0 0 0 0 0 0 0 0 0 0 0 0
0 0 0 0 0 0 0 0 0 0 0 0 0 0 0 0 0 0 0 0 0 0 0 0 0 0 0 0 0 0 0 0 0 0 0 0 0 0 0 0 0 0 0
0 0 0 0 0 0 0 0 0 0 0 0 0 0 0 0 0 0 0 0 0 0 0 0 0 0 0 0 0 0 0 0 0 0 0 0 0 0 0 0 0 0 0
0 0 0 0 0 0 0 0 0 0 0 0 0 0 0 0 0 0 0 0 0 0 0 0 0 0 0 0 0 0 0 0 0 0 0 0 0 1 2 1 0 0 0
1 1 1 0 0 0 0 0 0 0 0 0 0 0 0 0 0 0 0 0 0 0 0 0 0 0 0 0 0 0 0 0 0 0 0 3 9 17 15 6 0 0 0
6 6 3 0 0 0 0 0 0 0 0 0 0 0 0 0 0 0 0 0 0 0 0 0 0 0 0 0 0 0 0 0 0 0 0 9 31 49 42 19 4 1 0
12 13 7 0 0 0 0 0 0 0 0 0 0 0 0 0 0 0 0 0 0 0 0 1 1 1 0 0 0 0 0 0 0 0 0 14 49 75 67 36 11 2 1
16 18 11 3 1 0 0 0 0 0 0 0 0 0 0 0 0 3 10 15 16 14 13 12 9 6 2 0 0 0 0 0 0 0 3 22 58 81 74 45 17 5 3
26 25 19 14 11 5 2 3 2 0 0 0 0 4 8 6 2 9 30 46 48 41 32 24 18 11 4 1 0 0 0 0 0 0 10 37 66 77 66 41 19 7 4
49 41 35 41 42 25 14 16 11 5 6 9 9 14 25 25 15 20 49 73 76 64 42 26 22 16 6 2 2 2 1 0 0 1 17 48 70 69 55 36 20 11 7
76 65 61 73 77 62 45 42 36 25 27 34 37 38 49 55 43 43 67 87 87 76 58 41 39 34 22 15 10 6 3 1 1 3 22 53 71 67 56 44 32 19 10
93 86 84 92 96 90 82 77 69 60 59 66 72 73 75 80 75 73 86 95 93 87 80 74 69 66 58 44 30 21 14 10 10 17 39 67 80 78 73 65 53 35 22
99 97 97 98 100 99 99 97 93 89 87 89 93 95 94 93 93 93 96 98 97 94 91 92 91 89 85 74 61 51 43 34 35 49 68 85 93 92 90 84 73 59 48
100 100 100 100 100 100 100 100 100 99 99 98 99 99 99 98 99 100 100 100 100 98 97 97 98 96 93 87 81 74 68 65 67 78 89 95 97 96 96 93 87 79 74
100 100 100 100 100 100 100 100 100 99 99 99 100 100 100 100 100 100 100 100 100 100 100 100 98 96 93 88 82 77 76 79 83 89 96 99 97 95 96 97 94 89 86
100 100 100 99 100 100 100 100 99 97 97 98 99 99 99 100 100 100 100 100 100 100 100 100 98 97 94 89 80 75 73 75 78 82 89 94 94 93 93 96 97 93 89
100 100 100 100 100 100 100 100 100 98 98 99 99 99 99 100 100 100 100 100 100 100 100 100 99 98 96 92 85 77 69 63 65 71 78 84 84 78 76 84 93 94 90
100 100 100 100 100 100 100 100 100 100 100 100 100 99 99 100 100 100 100 100 100 100 100 100 100 99 98 95 89 79 66 54 50 60 74 81 76 63 51 60 82 91 89
94 95 98 99 100 100 100 100 100 100 100 100 100 100 100 100 100 100 100 100 100 100 100 100 100 99 97 93 86 78 66 51 44 53 74 87 83 68 50 46 64 81 86
67 72 81 92 98 100 100 100 100 100 100 100 100 100 100 100 100 100 100 99 99 99 98 97 96 95 92 86 79 72 61 49 41 48 68 86 89 82 65 46 44 59 70
29 36 52 72 88 96 100 100 100 100 100 100 100 100 100 100 100 100 98 97 97 97 95 92 90 87 81 73 65 59 49 38 30 31 45 64 73 72 61 40 27 31 39
5 11 28 50 72 89 97 98 99 100 100 100 100 100 100 100 100 98 96 95 94 93 90 86 79 71 61 50 43 37 30 21 14 10 16 28 37 38 33 23 14 11 12
0 4 18 41 66 84 93 95 98 99 100 100 100 100 100 100 99 97 95 93 92 90 86 80 69 55 42 31 24 20 17 13 8 3 3 8 13 14 12 10 7 3 2

GEFSSE_con_probscp_024.txt.gz
Probability
0 1 2 1 0 0 0 0 0 0 0 0 0 0 0 0 0 0 0 0 0 0 0 0 0 0 0 0 0 0 0 0 0 0 0 0 0 0 0 0 0 0 0
0 1 1 1 0 0 0 0 0 0 0 0 0 0 0 0 0 0 0 0 0 0 0 0 0 0 0 0 0 0 0 0 0 0 0 0 0 0 0 0 0 0 0
0 0 0 0 0 0 0 0 0 0 0 0 0 0 0 0 0 0 0 0 0 0 0 0 0 0 0 0 0 0 0 0 0 0 0 0 0 0 0 0 0 0 0
0 0 0 0 0 0 0 0 0 0 0 0 0 0 0 0 0 0 0 0 0 0 0 0 0 0 0 0 0 0 0 0 0 0 0 0 0 0 0 0 0 0 0
0 0 0 1 1 0 0 0 0 0 0 0 0 0 0 0 0 0 0 0 0 0 0 0 0 0 0 0 0 0 0 0 0 0 0 0 0 0 0 0 0 0 0
0 0 2 4 3 1 0 0 0 0 0 0 0 0 0 0 0 0 0 0 0 0 0 0 0 0 0 0 0 0 0 0 0 0 0 0 0 0 0 0 0 0 0
0 0 3 7 7 5 4 5 3 1 0 0 0 0 0 0 0 0 0 0 0 0 0 0 0 0 0 0 0 0 0 0 0 0 0 0 0 0 0 0 0 0 0
0 0 3 6 9 11 13 14 12 6 2 0 0 0 0 0 0 0 0 0 0 0 0 0 0 0 0 0 0 0 0 0 0 0 0 0 0 0 0 0 0 0 0
0 0 2 4 8 13 18 22 21 14 5 1 0 0 0 0 0 0 0 0 0 0 0 0 0 0 0 0 0 0 0 0 0 0 0 0 0 0 0 1 3 3 3
0 0 1 2 5 8 13 18 19 15 9 3 0 0 0 0 0 0 0 0 1 1 0 0 0 1 1 1 1 1 0 0 0 0 0 0 0 0 1 6 14 19 19
1 1 1 3 5 6 7 9 10 10 7 3 1 1 1 0 0 0 0 1 2 2 1 1 1 2 2 2 2 2 1 0 0 0 0 0 0 0 2 13 31 44 48
4 4 4 8 10 9 6 4 5 5 4 2 1 1 1 0 0 0 0 0 1 1 2 2 3 3 3 3 3 2 1 0 0 0 0 0 0 0 4 17 39 60 71
15 10 8 13 16 13 7 4 4 4 3 2 1 1 1 0 0 0 0 0 1 4 6 7 6 5 4 3 1 1 0 0 0 0 0 1 2 6 13 26 45 64 73
31 21 13 16 18 14 7 4 6 5 4 3 1 0 1 1 0 1 2 3 7 17 25 23 16 11 7 4 1 0 0 0 0 0 1 5 14 24 35 47 58 67 71
51 35 22 23 23 17 12 10 9 8 6 4 3 4 7 9 10 11 12 15 25 42 55 52 39 25 16 7 2 0 0 0 0 0 2 12 30 49 63 72 76 76 76
71 57 42 40 41 34 32 33 30 28 27 25 23 24 26 33 39 40 37 40 53 69 78 77 65 49 35 21 11 7 5 6 6 4 5 16 38 63 82 90 89 85 84
86 80 72 67 66 63 64 66 65 64 63 60 58 57 58 65 73 75 70 70 78 87 90 86 78 67 58 47 35 25 20 19 17 13 12 20 38 64 85 94 94 91 89
95 94 92 90 87 85 87 88 88 87 85 82 76 72 75 83 90 93 91 90 92 95 94 89 81 74 69 64 55 43 33 29 24 20 19 23 37 58 78 90 92 91 88
98 97 98 98 96 95 94 93 92 92 91 86 74 64 63 71 82 91 95 95 95 96 94 89 81 74 68 64 58 47 37 31 25 21 20 24 35 52 68 80 86 85 82
93 93 94 95 95 94 93 91 89 89 90 88 76 60 49 52 67 83 92 95 95 94 91 87 80 71 63 58 52 45 37 30 25 21 19 20 28 39 52 64 72 72 70
75 78 81 82 82 80 78 77 75 76 80 84 80 68 56 54 63 76 86 91 91 88 85 81 76 68 60 55 49 41 31 24 21 20 18 16 18 24 34 44 53 55 55
48 56 62 63 60 56 53 53 53 56 63 73 79 78 74 70 71 75 81 84 82 79 77 75 71 65 58 51 45 35 23 14 12 13 12 9 8 11 18 25 30 34 35
27 34 44 47 44 40 37 36 36 36 41 51 63 71 74 75 75 73 76 80 79 74 71 68 67 63 54 47 41 32 17 7 4 4 4 3 2 3 6 8 12 14 14
18 23 32 38 39 38 36 31 24 20 20 24 32 40 47 54 60 64 71 79 79 74 67 63 62 58 51 43 36 25 14 4 0 0 0 0 0 0 0 1 3 4 3
12 17 26 34 37 38 37 28 16 9 7 6 8 11 15 21 31 45 59 68 69 65 58 54 50 45 39 33 24 16 8 3 0 0 0 0 0 0 0 0 0 1 1
6 11 22 32 36 38 36 27 14 6 3 2 1 1 1 5 13 29 46 56 56 52 48 44 38 32 26 20 15 9 5 2 0 0 0 0 0 0 0 0 0 0 0

GEFSSE_con_probscp_030.txt.gz
Probability
0 0 0 0 0 0 0 0 0 0 1 2 2 1 0 0 0 0 0 0 0 0 0 0 0 0 0 0 0 0 0 0 0 0 0 0 0 0 0 0 0 0 0
0 0 0 0 0 0 0 0 0 0 0 1 1 0 0 0 0 0 0 0 0 0 0 0 0 0 0 0 0 0 0 0 0 0 0 0 0 0 0 0 0 0 0
0 0 0 0 0 0 0 0 0 0 0 0 0 0 0 0 0 0 0 0 0 0 0 0 0 0 0 0 0 0 0 0 0 0 0 0 0 0 0 0 0 0 0
0 0 0 0 0 0 0 0 0 0 0 0 0 0 0 0 0 0 0 0 0 0 0 0 0 0 0 0 0 0 0 0 0 0 0 0 0 0 0 0 0 0 0
0 0 0 0 0 0 0 0 0 0 0 0 0 0 0 0 0 0 0 0 0 0 0 0 0 0 0 0 0 0 0 0 0 0 0 0 0 0 0 0 0 0 0
0 0 0 0 0 0 0 0 0 0 0 0 0 0 0 0 0 0 0 0 0 0 0 0 0 0 0 0 0 0 0 0 0 0 0 0 0 0 0 0 0 0 0
0 0 0 0 0 0 0 0 0 0 0 0 0 0 0 0 0 0 0 0 0 0 0 0 0 0 0 0 0 0 0 0 0 0 0 0 0 0 0 0 0 0 0
0 0 0 1 0 0 0 1 1 1 1 1 1 0 0 0 0 0 0 0 0 0 0 0 0 0 0 0 0 0 0 0 0 0 0 0 0 0 0 0 0 0 0
0 0 0 0 0 0 1 3 4 4 4 3 2 1 0 0 0 0 0 0 0 0 0 0 0 0 0 0 0 0 0 0 0 0 0 0 0 0 0 0 0 0 0
0 0 0 1 3 4 7 10 11 12 10 7 5 3 1 1 0 0 0 0 0 0 0 0 0 0 0 0 0 0 0 0 0 0 0 0 0 0 0 0 0 0 0
0 0 1 3 8 14 19 23 25 25 22 18 13 9 6 3 1 0 0 0 0 0 0 0 0 0 0 0 0 0 0 0 0 0 0 0 0 0 0 0 0 0 0
0 0 1 5 12 23 33 37 40 41 38 33 25 19 13 6 3 2 1 0 0 0 0 0 0 0 0 0 0 0 0 0 0 0 0 0 0 0 0 0 0 0 0
0 0 1 5 12 24 33 39 44 49 49 44 36 28 22 15 10 8 6 3 1 0 0 0 0 0 0 1 1 1 0 0 0 0 0 0 0 0 0 0 0 0 0
0 0 1 3 9 17 23 29 35 43 48 45 38 34 34 33 26 20 17 13 8 4 2 2 3 4 4 4 3 3 3 2 1 0 0 0 0 0 0 0 0 0 0
1 1 1 3 6 11 17 21 23 27 33 34 29 31 42 50 44 34 27 21 15 13 14 15 16 16 17 14 10 7 5 3 2 1 0 0 0 0 0 0 0 0 0
9 7 5 5 8 14 20 21 16 14 17 19 17 20 34 50 51 40 30 25 26 33 40 40 37 36 34 31 22 13 6 4 3 2 1 1 0 0 0 0 0 0 0
25 22 17 14 15 20 25 24 16 10 11 13 12 13 23 40 49 44 36 35 45 60 65 62 57 53 49 44 35 23 13 8 5 3 4 5 5 3 1 1 1 2 2
45 39 31 24 23 26 29 28 25 23 25 29 30 28 31 42 51 51 48 51 65 79 80 74 69 63 58 51 41 30 22 16 10 8 9 12 14 12 6 4 4 6 8
53 47 39 34 34 35 36 37 38 42 47 53 55 52 49 54 59 63 64 67 77 88 87 81 76 70 62 54 42 32 28 25 19 14 12 15 19 17 12 9 10 12 14
46 41 36 35 37 40 40 41 43 47 51 55 57 56 54 57 63 69 73 78 85 91 90 86 81 73 64 56 44 35 31 29 24 18 16 17 18 17 16 17 20 22 23
32 27 23 22 24 27 30 31 33 35 35 36 37 38 39 43 51 58 66 74 82 87 86 84 81 73 64 57 48 38 30 26 21 19 20 20 18 17 17 20 25 30 32
16 13 10 7 8 12 17 19 21 21 19 17 16 16 17 20 26 34 43 53 63 71 74 75 75 69 61 56 51 39 26 18 15 14 16 16 14 14 13 14 19 25 29
6 5 4 3 5 9 13 17 17 12 8 5 4 3 3 4 7 11 18 28 38 47 53 58 63 62 56 52 49 41 27 16 10 6 6 5 5 6 6 7 8 12 16
1 1 2 4 7 11 14 17 14 7 2 1 0 0 0 0 1 1 4 10 18 25 30 37 45 51 50 48 45 40 31 20 11 4 1 0 0 1 2 2 2 4 6
0 0 1 3 6 9 12 12 8 3 0 0 0 0 0 0 0 0 1 3 7 10 13 20 29 36 39 40 39 36 31 24 16 9 3 1 0 0 0 0 0 1 1
0 0 1 2 4 6 8 8 4 1 0 0 0 0 0 0 0 0 0 1 3 4 5 12 21 26 28 31 32 31 29 25 21 12 5 2 1 0 0 0 0 0 0

GEFSSE_con_probscp_036.txt.gz
Probability
0 0 0 0 0 0 0 0 0 0 0 0 0 0 0 0 0 0 0 0 0 0 0 0 0 0 0 0 0 0 0 0 0 0 0 0 0 0 0 0 0 0 0
0 0 0 0 0 0 0 0 0 0 0 0 0 0 0 0 0 0 0 0 0 0 0 0 0 0 0 0 0 0 0 0 0 0 0 0 0 0 0 0 0 0 0
0 0 0 0 0 0 0 0 0 0 0 0 0 0 0 0 0 0 0 0 0 0 0 0 0 0 0 0 0 0 0 0 0 0 0 0 0 0 0 0 0 0 0
0 0 0 0 0 0 0 0 0 0 0 0 0 0 0 0 0 0 0 0 0 0 0 0 0 0 0 0 0 0 0 0 0 0 0 0 0 0 0 0 0 0 0
0 0 0 0 0 0 0 0 0 0 0 0 0 0 0 0 0 0 0 0 0 0 0 0 0 0 0 0 0 0 0 0 0 0 0 0 0 0 0 0 0 0 0
0 0 0 0 0 0 0 0 0 0 0 0 0 0 0 0 0 0 0 0 0 0 0 0 0 0 0 0 0 0 0 0 0 0 0 0 0 0 0 0 0 0 0
0 0 0 0 0 0 0 0 0 0 0 0 0 0 0 0 0 0 0 0 0 0 0 0 0 0 0 0 0 0 0 0 0 0 0 0 0 0 0 0 0 0 0
0 0 0 0 0 0 0 0 0 0 0 0 0 0 0 0 0 0 0 0 0 0 0 0 0 0 0 0 0 0 0 0 0 0 0 0 0 0 0 0 0 0 0
0 0 0 0 0 0 0 1 1 0 0 0 1 1 1 0 0 0 0 0 0 0 0 0 0 0 0 0 0 0 0 0 0 0 0 1 1 1 0 0 0 0 0
0 0 0 0 0 0 0 1 2 1 1 1 2 3 2 0 0 0 2 3 2 0 0 0 0 0 0 0 0 0 0 0 0 0 0 4 6 3 0 0 0 0 0
0 0 0 0 0 0 0 1 2 3 3 4 4 5 4 2 1 1 5 12 10 4 1 0 0 0 0 0 2 3 2 0 0 1 4 12 15 7 1 0 0 0 0
0 0 0 0 0 0 0 1 3 5 8 9 9 10 9 7 3 1 8 17 15 6 2 1 1 1 0 3 9 10 5 0 1 1 9 23 24 11 2 0 0 0 0
1 1 1 1 1 1 2 4 6 8 11 13 13 15 17 16 10 5 8 14 11 6 5 6 5 3 2 5 13 13 8 5 4 4 15 28 25 12 3 0 0 0 0
4 4 5 5 5 6 8 9 10 10 12 13 15 18 23 24 17 11 15 17 15 15 18 20 18 13 9 11 14 14 14 17 17 17 27 32 24 12 4 1 0 0 0
6 6 7 9 11 16 20 20 17 15 14 12 13 17 22 25 20 18 26 30 28 30 39 44 42 37 33 31 28 27 31 35 35 36 39 38 29 17 6 1 1 1 1
9 9 9 11 14 21 29 31 26 20 17 13 13 15 18 23 25 28 33 37 40 46 57 64 66 66 65 63 56 51 51 50 51 51 46 42 36 25 12 6 4 3 3
17 17 17 15 17 24 32 34 29 22 16 16 19 20 20 22 28 34 37 41 50 60 71 78 82 84 85 83 77 70 66 62 60 57 50 46 42 33 24 18 13 10 9
33 34 31 24 24 30 35 34 29 23 20 21 25 24 20 18 22 30 37 46 58 70 80 87 89 89 90 89 84 77 74 71 64 56 48 44 41 36 32 29 26 22 20
51 50 42 32 29 31 32 29 25 22 20 19 20 19 16 13 15 21 29 40 54 69 80 89 91 91 93 92 85 81 77 71 64 55 45 38 36 34 31 32 34 32 29
59 53 43 34 28 24 20 18 16 14 12 11 10 11 11 9 10 15 19 27 39 53 68 80 87 91 95 95 91 85 78 71 67 61 50 40 35 32 28 30 37 37 34
59 51 38 29 23 18 13 9 7 6 5 4 4 4 5 5 6 8 12 16 23 33 46 61 74 82 89 93 93 89 81 74 70 66 57 48 40 34 30 31 36 39 40
57 47 33 24 21 20 16 10 6 6 5 3 1 0 1 1 2 4 6 9 12 18 26 40 55 65 72 80 87 88 82 75 69 64 61 55 47 40 34 30 32 38 41
51 40 28 24 24 25 23 16 11 9 6 2 0 0 0 0 1 1 3 4 6 8 13 22 35 45 53 63 74 82 81 73 68 64 61 59 55 47 37 30 28 31 33
41 35 28 28 30 32 32 29 24 17 8 2 0 0 1 0 0 1 1 1 1 2 4 9 17 27 37 45 57 71 76 74 70 62 55 54 53 48 40 33 30 30 29
27 27 27 33 40 44 45 48 46 35 21 11 6 3 2 1 0 1 0 0 0 0 1 3 8 15 23 30 41 55 67 71 69 59 47 44 45 43 41 40 39 36 33
16 19 23 34 49 56 57 61 61 53 39 26 15 7 2 1 0 1 0 0 0 0 1 2 5 10 17 24 32 45 58 65 65 57 45 40 40 39 42 46 45 41 37

GEFSSE_con_probscp_042.txt.gz
Probability
0 0 0 0 0 0 0 0 0 0 0 0 0 0 0 0 0 0 0 0 0 0 0 0 0 0 0 0 0 0 0 0 0 0 0 0 0 0 0 0 0 0 0
0 0 0 0 0 0 0 0 0 0 0 0 0 0 0 0 0 0 0 0 0 0 0 0 0 0 0 0 0 0 0 0 0 0 0 0 0 0 0 0 0 0 0
0 0 0 0 0 0 0 0 0 0 0 0 0 0 0 0 0 0 0 0 0 0 0 0 0 0 0 0 0 0 0 0 0 0 0 0 0 0 0 0 0 0 0
0 0 0 0 0 0 0 0 0 0 0 0 0 0 0 0 0 0 0 0 0 0 0 0 0 0 0 0 0 0 0 0 0 0 0 0 0 0 0 0 0 0 0
0 0 0 0 0 0 0 0 0 0 0 0 0 0 0 0 0 0 0 0 0 0 0 0 0 0 0 0 0 0 0 0 0 0 0 0 0 0 0 0 0 0 0
0 0 0 0 0 0 0 0 0 0 0 0 0 0 0 0 0 0 0 0 0 0 0 0 0 0 0 0 0 0 0 0 0 0 0 0 0 0 0 0 0 0 0
0 0 0 0 0 0 0 0 0 0 0 0 0 0 0 0 0 0 0 0 0 0 0 0 0 0 1 1 1 0 0 0 0 0 0 0 2 3 3 1 0 0 0
1 1 1 1 0 0 0 0 0 0 0 0 0 0 0 0 0 0 0 0 1 1 1 1 1 1 1 2 2 2 2 1 0 0 0 1 7 14 13 6 1 0 0
8 7 3 0 0 0 0 0 0 0 0 0 0 0 0 0 0 0 1 2 3 3 2 2 1 1 1 1 2 2 3 3 1 0 0 6 23 36 32 16 5 1 0
18 13 5 0 0 0 0 0 1 1 0 0 0 0 0 0 2 7 12 13 12 11 11 10 7 4 4 5 6 7 7 4 1 0 2 18 48 65 55 33 15 5 2
22 16 8 6 6 2 3 5 4 2 2 2 3 6 7 4 4 14 29 37 40 39 38 35 27 19 12 10 17 24 19 8 2 0 7 35 70 86 76 55 31 13 6
20 15 15 24 23 10 11 19 12 9 16 17 17 25 31 23 12 17 40 64 75 74 68 61 51 37 22 16 26 43 38 18 4 2 18 53 85 95 89 71 48 27 14
21 16 24 45 45 24 24 34 26 27 43 47 43 52 61 54 35 27 48 78 91 92 82 71 66 53 35 27 34 52 54 34 17 16 37 72 94 98 94 80 60 39 24
30 25 36 63 67 47 42 48 47 49 66 74 73 74 81 82 65 53 64 83 90 91 84 75 74 70 54 44 46 55 61 54 41 43 64 87 98 99 96 86 67 45 32
49 44 56 79 87 77 66 65 65 69 76 83 87 89 91 93 86 77 81 87 85 84 81 77 79 80 72 62 58 57 59 63 63 68 82 93 98 98 96 90 76 55 42
71 70 79 92 98 94 86 80 76 77 79 81 86 91 92 93 90 86 84 85 81 76 73 72 74 78 76 70 65 58 53 58 69 78 85 91 96 97 96 92 84 70 58
90 91 93 97 98 98 95 89 80 73 73 78 81 83 82 81 79 74 71 72 72 69 66 64 65 69 69 67 64 57 50 53 65 76 81 85 88 91 92 90 85 77 71
99 99 98 97 98 99 96 88 75 66 65 68 70 72 68 61 54 51 49 52 55 55 53 53 55 58 61 61 59 57 54 56 62 69 74 76 77 78 83 84 82 79 76
99 99 98 97 98 98 92 79 67 61 56 51 53 57 53 38 29 27 28 32 36 36 37 40 43 46 51 53 52 52 56 59 61 63 67 69 68 66 68 73 77 78 79
97 97 97 98 98 95 86 72 62 55 45 36 37 44 37 21 13 13 14 17 19 19 22 27 31 34 38 42 42 45 50 55 58 62 67 70 66 61 58 63 71 76 77
94 93 93 94 92 89 81 70 61 53 39 27 31 37 28 13 7 6 5 6 7 8 11 15 19 22 25 28 34 36 38 44 53 62 71 75 71 64 58 60 68 73 75
89 86 85 85 82 79 76 69 60 54 43 34 38 45 35 19 10 6 4 2 1 2 4 6 10 13 15 20 28 32 30 34 44 56 69 77 76 71 65 60 64 69 71
79 76 76 78 77 76 75 68 60 56 53 51 56 61 53 35 21 14 9 5 2 1 1 2 5 7 10 13 21 29 29 28 32 41 52 63 71 75 70 61 58 61 63
66 69 73 77 79 80 79 75 69 67 68 70 72 76 69 54 40 29 21 15 10 6 2 1 2 4 6 7 13 21 25 24 24 25 28 37 53 67 70 65 58 55 55
58 63 71 76 80 82 84 84 83 82 84 84 83 84 80 71 62 51 41 35 27 18 9 5 4 4 5 6 8 11 14 17 18 15 11 16 28 46 62 68 65 59 57
53 58 66 74 79 82 85 88 88 90 93 91 88 88 86 81 75 66 58 52 42 27 16 10 7 4 6 9 10 7 8 11 14 12 7 7 14 30 53 69 72 68 64